Alkor — DBND — position and weather

sailwx.info

Track history (hours):
 
Tides and Currents Weather Stations Pressure Air Temp Water Temp Dewpoint Dewpoint Depression Visibility Wind Speed Wind Dir Waves Ship Positions

Oceanographic research ship Alkor (Germany)

Ship's website: http://www.briese.de/

Detailed information on ship capabilities available from University of Delaware's Ocean Information Center.

Last reported at 2017-Mar-29 03:16 UTC. Time now 2017-Mar-29 13:18 UTC.
Position N 54°49' E 013°48'.

Length 55 m; draft 4.2 m.

Type: Ship. MMSI: 211216512.

Date/timePositionNaut miles runAvg speedWind from/ knotsBaromVisibWave heightAir tempDewpointWater temp
2017-Mar-29 03:16N 54°49' E 013°48'2 3.1
2017-Mar-29 02:33N 54°47' E 013°49'4 0.8
2017-Mar-28 22:07N 54°49' E 013°44'5 7.5
2017-Mar-28 21:31N 54°48' E 013°52'3 2.9
2017-Mar-28 20:33N 54°46' E 013°53'8 7.5
2017-Mar-28 19:32N 54°40' E 013°44'8 6.8
2017-Mar-28 18:22N 54°36' E 013°32'0 0.4
2017-Mar-28 17:06N 54°36' E 013°33'3 2.2
2017-Mar-28 15:31N 54°37' E 013°38'4 3.1
2017-Mar-28 14:08N 54°37' E 013°31'1 1.8
2017-Mar-28 13:33N 54°38' E 013°30'1 1.2
2017-Mar-28 12:33N 54°39' E 013°28'2 2.0
2017-Mar-28 11:33N 54°38' E 013°31'3 2.6
2017-Mar-28 10:33N 54°39' E 013°28'3 3.1
2017-Mar-28 09:33N 54°38' E 013°32'3 2.8
2017-Mar-28 08:32N 54°38' E 013°37'0 0.3
2017-Mar-28 07:24N 54°38' E 013°37'1 0.4
2017-Mar-28 05:33N 54°38' E 013°38'1 0.8
2017-Mar-28 04:31N 54°38' E 013°39'4 3.2
2017-Mar-28 03:25N 54°39' E 013°34'6 7.4
2017-Mar-28 02:33N 54°43' E 013°25'1310.4
2017-Mar-28 01:18N 54°40' E 013°03'910.4
2017-Mar-28 00:27N 54°37' E 012°48'1010.9
2017-Mar-27 23:30N 54°33' E 012°32'1010.5
2017-Mar-27 22:32N 54°29' E 012°16'10 9.7
2017-Mar-27 21:33N 54°24' E 012°02'1110.7
2017-Mar-27 20:33N 54°25' E 011°44'1010.4
2017-Mar-27 19:33N 54°30' E 011°27'1010.3
2017-Mar-27 18:33N 54°34' E 011°12'10 9.8
2017-Mar-27 17:33N 54°33' E 010°55'1110.9
2017-Mar-27 16:30N 54°31' E 010°36'1010.6
2017-Mar-27 15:33N 54°28' E 010°19'10 1.0
2017-Mar-27 06:14N 54°20' E 010°10'0 0.0
2017-Mar-25 03:15N 54°20' E 010°09'0 0.0
2017-Mar-25 01:30N 54°20' E 010°09'0 0.0
2017-Mar-25 00:30N 54°20' E 010°09'0 0.0
2017-Mar-24 23:33N 54°20' E 010°09'0 0.0
2017-Mar-24 22:33N 54°20' E 010°09'6 0.5
2017-Mar-24 10:27N 54°25' E 010°12'1 0.9
2017-Mar-24 09:33N 54°24' E 010°13'5 1.0
2017-Mar-24 04:23N 54°20' E 010°09'  
Track history (hours):
 
Tides and Currents Weather Stations Pressure Air Temp Water Temp Dewpoint Dewpoint Depression Visibility Wind Speed Wind Dir Waves Ship Positions

Oceanographic research ship Alkor (Germany)

Ship's website: http://www.briese.de/

Detailed information on ship capabilities available from University of Delaware's Ocean Information Center.

Last reported at 2017-Mar-29 03:16 UTC. Time now 2017-Mar-29 13:18 UTC.
Position N 54°49' E 013°48'.

Length 55 m; draft 4.2 m.

Type: Ship. MMSI: 211216512.

Date/timePositionNaut miles runAvg speedWind from/ knotsBaromVisibWave heightAir tempDewpointWater temp
2017-Mar-29 03:16N 54°49' E 013°48'2 3.1
2017-Mar-29 02:33N 54°47' E 013°49'4 0.8
2017-Mar-28 22:07N 54°49' E 013°44'5 7.5
2017-Mar-28 21:31N 54°48' E 013°52'3 2.9
2017-Mar-28 20:33N 54°46' E 013°53'8 7.5
2017-Mar-28 19:32N 54°40' E 013°44'8 6.8
2017-Mar-28 18:22N 54°36' E 013°32'0 0.4
2017-Mar-28 17:06N 54°36' E 013°33'3 2.2
2017-Mar-28 15:31N 54°37' E 013°38'4 3.1
2017-Mar-28 14:08N 54°37' E 013°31'1 1.8
2017-Mar-28 13:33N 54°38' E 013°30'1 1.2
2017-Mar-28 12:33N 54°39' E 013°28'2 2.0
2017-Mar-28 11:33N 54°38' E 013°31'3 2.6
2017-Mar-28 10:33N 54°39' E 013°28'3 3.1
2017-Mar-28 09:33N 54°38' E 013°32'3 2.8
2017-Mar-28 08:32N 54°38' E 013°37'0 0.3
2017-Mar-28 07:24N 54°38' E 013°37'1 0.4
2017-Mar-28 05:33N 54°38' E 013°38'1 0.8
2017-Mar-28 04:31N 54°38' E 013°39'4 3.2
2017-Mar-28 03:25N 54°39' E 013°34'6 7.4
2017-Mar-28 02:33N 54°43' E 013°25'1310.4
2017-Mar-28 01:18N 54°40' E 013°03'910.4
2017-Mar-28 00:27N 54°37' E 012°48'1010.9
2017-Mar-27 23:30N 54°33' E 012°32'1010.5
2017-Mar-27 22:32N 54°29' E 012°16'10 9.7
2017-Mar-27 21:33N 54°24' E 012°02'1110.7
2017-Mar-27 20:33N 54°25' E 011°44'1010.4
2017-Mar-27 19:33N 54°30' E 011°27'1010.3
2017-Mar-27 18:33N 54°34' E 011°12'10 9.8
2017-Mar-27 17:33N 54°33' E 010°55'1110.9
2017-Mar-27 16:30N 54°31' E 010°36'1010.6
2017-Mar-27 15:33N 54°28' E 010°19'10 1.0
2017-Mar-27 06:14N 54°20' E 010°10'0 0.0
2017-Mar-25 03:15N 54°20' E 010°09'0 0.0
2017-Mar-25 01:30N 54°20' E 010°09'0 0.0
2017-Mar-25 00:30N 54°20' E 010°09'0 0.0
2017-Mar-24 23:33N 54°20' E 010°09'0 0.0
2017-Mar-24 22:33N 54°20' E 010°09'6 0.5
2017-Mar-24 10:27N 54°25' E 010°12'1 0.9
2017-Mar-24 09:33N 54°24' E 010°13'5 1.0
2017-Mar-24 04:23N 54°20' E 010°09'  

Dump ship's entire track history